Regional Weather Roundup
Issued by NWS Columbia, SC

Home | Current Version | Previous Version | Text Only | Print | Product List | Glossary On
Versions: 1 2 3 4 5 6 7 8 9 10 11 12 13 14 15 16 17 18 19 20 21 22 23 24 25 26 27 28 29 30 31 32 33 34 35 36 37 38 39 40 41 42 43 44 45 46 47 48 49 50
000
ASUS42 KCAE 300810
RWRCAE
REGIONAL WEATHER ROUNDUP
NATIONAL WEATHER SERVICE COLUMBIA SC
400 AM EDT TUE JUN 30 2015

NOTE: "FAIR" INDICATES FEW OR NO CLOUDS BELOW 12,000 FEET WITH NO
SIGNIFICANT WEATHER AND/OR OBSTRUCTIONS TO VISIBILITY.

NOT ALL STATIONS ARE QUALITY CONTROLLED BY THE NATIONAL
WEATHER SERVICE. USE DATA WITH CAUTION...ESPECIALLY
DEWPOINT OBSERVATIONS.

SCZ001>056-GAZ040-063>065-077-300900-
...UPSTATE SOUTH CAROLINA...

CITY           SKY/WX    TMP DP  RH WIND       PRES   REMARKS
ANDERSON       PTCLDY    70  63  78 SW5       29.97S
SPARTANBURG      N/A     72  63  73 SW7       29.95F
CLEMSON        PTCLDY    72  63  73 SW3       29.99S
GREENVILLE     PTCLDY    73  62  68 SW7       29.98S
GREENWOOD      CLEAR     74  62  66 W8        29.99S
GREER          PTCLDY    72  63  73 SW8       29.96S
ROCK HILL      CLEAR     69  61  75 SW6       29.96R
CHESTER        SUNNY     72  59  64 CALM      29.96S
LAURENS        SUNNY     70  68  94 SW5       29.97S


...CENTRAL SOUTH CAROLINA...

CITY           SKY/WX    TMP DP  RH WIND       PRES   REMARKS
COLUMBIA APT   CLEAR     72  61  68 W3        29.96S
COLUMBIA OWENS CLEAR     70  64  81 CALM      29.98R
DARLINGTON     CLEAR     70  61  73 S5        29.97S
FLORENCE       CLEAR     72  64  76 SW7       29.96R
MCENTIRE ANGB  CLEAR     64  61  90 CALM      29.97S
ORANGEBURG     CLEAR     69  63  81 SW7       29.98S
SUMTER SHAW    CLEAR     73  62  67 SW7       29.95S
NEWBERRY       SUNNY     72 N/A N/A SW3       29.99S
AIKEN          FAIR     N/A N/A N/A SW8       30.02S
BARNWELL       FAIR      72  66  83 SW3       30.00R
MANNING        FAIR      73  63  68 SW5       29.97S
CAMDEN         FAIR      72  61  68 S5        29.97S
LANCASTER      SUNNY     68  63  83 CALM      29.96S
WINNSBORO      SUNNY     72  61  68 SW3       29.97R


...EASTERN AND COASTAL SOUTH CAROLINA...

CITY           SKY/WX    TMP DP  RH WIND       PRES   REMARKS
MYRTLE BEACH   CLEAR     75  68  78 W9        29.99S
N MYRTLE BCH   CLEAR     76  69  79 W8        29.96S
CONWAY         FAIR      72  72 100 SW3       29.97S
MARION         FAIR      70  68  94 CALM      29.96S
HARTSVILLE     FAIR      68  59  73 CALM      29.96S
FLORENCE       CLEAR     72  64  76 SW7       29.96R
DARLINGTON     CLEAR     70  61  73 S5        29.97S
CHARLESTON APT PTCLDY    77  69  76 SW7       29.98S
MOUNT PLEASANT FAIR      77  73  88 SW7       29.99S
WALTERBORO     SUNNY     72  64  78 SW6       30.00S
BEAUFORT       CLEAR     74  69  85 SW6       30.00S


...EASTERN GEORGIA...

CITY           SKY/WX    TMP DP  RH WIND       PRES   REMARKS
AUGUSTA BUSH F CLEAR     73  63  70 SW8       29.98S
AUGUSTA DANIEL CLEAR     74  62  66 SW3       29.99S
THOMSON        CLEAR     70  66  87 SW3       30.03S
WASHINGTON     FAIR      73  68  83 SW5       29.99S
CLAXTON        FAIR      68  68 100 CALM      30.01S
SYLVANIA       SUNNY     71  69  92 CALM      30.01F
STATESBORO     CLEAR     73  68  86 SW3       30.00F
SAVANNAH       PTCLDY    73  67  81 W3        30.00F


...SOUTHERN NORTH CAROLINA...

CITY           SKY/WX    TMP DP  RH WIND       PRES   REMARKS
CHARLOTTE      CLEAR     73  59  61 SW7       29.95F
MONROE         CLEAR     69  60  73 SW6       29.94S
WADESBORO      SUNNY     72  60  66 CALM      29.93S
ROCKINGHAM     SUNNY     70  60  70 S5        29.94F
RUTHERFORDTON  CLEAR     68  63  82 SE3       29.94F
ASHEVILLE      PTCLDY    66  60  81 CALM      30.01F

$$


USA.gov is the U.S. government's official web portal to all federal, state and local government web resources and services.